CW3508 Weather Reports


Display with metric or nautical units.
time (UTC)temp
F
wind
direction
speed
MPH
gust
MPH
rain 1hr
in
rain 24hr
in
rain mn
in
humidity
%
barometer
mb
20260507101546 65 321 0.0 0.0 0.00 0.71 0.20 97 1007.6
20260507101054 65 321 0.0 0.0 0.00 0.71 0.20 98 1006.9
20260507100521 65 321 0.0 0.0 0.00 0.71 0.20 97 1006.9
20260507100030 65 321 0.0 0.0 0.01 0.71 0.20 97 1006.9
20260507095604 65 321 0.0 0.0 0.03 0.71 0.20 97 1007.0
20260507095032 65 321 0.0 0.0 0.04 0.71 0.20 97 1007.0
20260507094528 65 321 0.0 0.0 0.05 0.71 0.20 97 1007.0
20260507094028 65 321 0.0 0.0 0.06 0.71 0.20 98 1007.0
20260507093527 65 321 0.0 0.0 0.10 0.71 0.20 98 1007.0
20260507093018 65 321 0.0 0.0 0.11 0.71 0.20 98 1007.0
20260507092554 65 321 0.0 0.0 0.11 0.71 0.20 97 1007.0
20260507092106 65 321 0.0 0.0 0.11 0.71 0.20 97 1007.0
20260507091534 66 321 0.0 0.0 0.11 0.71 0.20 97 1007.0
20260507091023 66 321 0.0 0.0 0.11 0.71 0.20 97 1006.7
20260507090532 66 321 0.0 0.0 0.11 0.71 0.20 97 1006.7
20260507090036 66 321 0.0 0.0 0.10 0.70 0.19 97 1006.7
20260507085524 66 321 0.0 0.0 0.08 0.68 0.17 97 1007.0
20260507085039 66 321 0.0 0.0 0.07 0.67 0.16 97 1007.0
20260507084517 66 321 0.0 0.0 0.05 0.65 0.14 97 1007.0
20260507084032 66 321 0.0 0.0 0.04 0.64 0.13 97 1006.6
20260507083526 66 321 0.0 0.0 0.00 0.60 0.09 97 1006.6
20260507083034 66 321 0.0 0.0 0.01 0.60 0.09 97 1006.6
20260507082524 67 321 0.0 0.0 0.03 0.60 0.09 97 1006.5
20260507082034 67 321 0.0 0.0 0.03 0.60 0.09 98 1006.5
20260507081523 67 321 0.0 0.0 0.03 0.60 0.09 98 1006.5
20260507081101 67 321 0.0 0.0 0.04 0.60 0.09 98 1006.5
20260507080533 67 321 0.0 0.0 0.05 0.60 0.09 98 1006.5
20260507080020 67 321 0.0 0.0 0.05 0.60 0.09 98 1006.5
20260507075518 67 321 0.0 0.0 0.06 0.60 0.09 98 1006.6
20260507075034 67 321 0.0 0.0 0.06 0.60 0.09 98 1006.6
20260507074545 67 321 0.0 0.0 0.06 0.60 0.09 98 1006.6
20260507074036 67 321 0.0 0.0 0.06 0.60 0.09 98 1007.0
20260507073537 67 321 0.0 0.0 0.05 0.59 0.08 98 1007.0
20260507073032 67 321 0.0 0.0 0.05 0.59 0.08 98 1007.0
20260507072523 67 321 0.0 0.0 0.03 0.57 0.06 97 1006.6
20260507072024 67 321 0.0 1.0 0.03 0.57 0.06 97 1006.6
20260507071544 67 321 0.0 2.0 0.03 0.57 0.06 97 1006.6
20260507071043 67 321 0.0 3.0 0.02 0.56 0.05 97 1005.5
20260507070526 67 321 0.0 4.0 0.01 0.55 0.04 97 1005.5
20260507065528 67 163 1.0 2.0 0.00 0.54 0.03 97 1007.5
20260507065027 67 335 0.0 0.0 0.00 0.54 0.03 97 1007.5
20260507064036 67 335 0.0 0.0 0.00 0.54 0.03 97 1007.2
20260507063536 67 335 0.0 0.0 0.00 0.54 0.03 97 1007.2
20260507063040 67 335 0.0 0.0 0.00 0.54 0.03 97 1007.2
20260507062534 67 335 0.0 0.0 0.01 0.54 0.03 97 1007.6
20260507062019 67 335 0.0 0.0 0.01 0.54 0.03 97 1007.6
20260507061522 67 335 0.0 0.0 0.01 0.54 0.03 97 1007.6
20260507061018 67 335 0.0 0.0 0.01 0.54 0.03 97 1007.6
20260507060515 67 335 0.0 0.0 0.02 0.54 0.03 97 1007.6
20260507060028 67 335 0.0 0.0 0.03 0.54 0.03 97 1007.6
20260507055526 67 335 0.0 0.0 0.03 0.54 0.03 97 1008.1
20260507055044 67 335 0.0 0.0 0.03 0.54 0.03 97 1008.1
20260507054529 67 335 0.0 0.0 0.03 0.54 0.03 97 1008.1
20260507054029 67 335 0.0 0.0 0.03 0.54 0.03 97 1008.3
20260507053519 67 335 0.0 0.0 0.03 0.54 0.03 97 1008.3
20260507053029 67 335 0.0 0.0 0.03 0.54 0.03 97 1008.3
20260507052519 68 335 0.0 0.0 0.02 0.53 0.02 97 1008.5
20260507052022 68 335 0.0 0.0 0.02 0.53 0.02 97 1008.5
20260507051539 68 335 0.0 0.0 0.02 0.53 0.02 97 1008.5
20260507051035 68 335 0.0 0.0 0.03 0.53 0.02 97 1008.4
20260507050534 68 335 0.0 1.0 0.03 0.52 0.01 97 1008.4
20260507050028 68 335 0.0 1.0 0.03 0.51 0.00 97 1008.4
20260507045539 68 335 0.0 0.0 0.04 0.51 0.51 97 1007.8
20260507045043 68 335 0.0 0.0 0.05 0.51 0.51 97 1007.8
20260507044547 68 335 0.0 1.0 0.06 0.51 0.51 97 1007.8
20260507044025 68 335 0.0 1.0 0.09 0.51 0.51 97 1008.1
20260507043523 68 335 0.0 0.0 0.10 0.51 0.51 97 1008.1
20260507043040 68 335 0.0 1.0 0.10 0.51 0.51 97 1008.1
20260507042533 68 335 0.0 1.0 0.10 0.51 0.51 97 1008.7
20260507042037 68 335 0.0 0.0 0.11 0.51 0.51 97 1008.7
20260507041538 68 335 0.0 0.0 0.11 0.51 0.51 97 1008.7
20260507041026 68 335 0.0 3.0 0.11 0.50 0.50 97 1007.7
20260507040528 68 335 1.0 3.0 0.11 0.49 0.49 97 1007.7
20260507040032 68 339 0.0 0.0 0.11 0.48 0.48 97 1007.7
20260507035520 68 339 0.0 0.0 0.19 0.47 0.47 97 1007.9
20260507035039 68 339 0.0 1.0 0.21 0.46 0.46 97 1007.9
20260507034540 68 339 0.0 1.0 0.21 0.44 0.44 97 1007.9
20260507034047 68 339 0.0 2.0 0.20 0.42 0.42 97 1008.3
20260507033557 68 339 1.0 2.0 0.20 0.41 0.41 97 1008.3
20260507033040 68 194 0.0 2.0 0.20 0.41 0.41 97 1008.3
20260507032543 68 167 0.0 0.0 0.20 0.41 0.41 97 1009.0
20260507032023 68 167 0.0 0.0 0.21 0.40 0.40 97 1009.0
20260507031536 68 167 0.0 0.0 0.22 0.40 0.40 96 1009.0
20260507031036 68 167 0.0 0.0 0.21 0.39 0.39 96 1009.2
20260507030540 68 167 0.0 1.0 0.21 0.38 0.38 96 1009.2
20260507030057 68 167 0.0 1.0 0.19 0.36 0.36 96 1009.2
20260507025537 68 165 0.0 0.0 0.11 0.28 0.28 96 1009.6
20260507025026 68 165 0.0 1.0 0.08 0.25 0.25 96 1009.6
20260507024518 69 165 0.0 1.0 0.05 0.22 0.22 96 1009.6
20260507024035 69 165 0.0 1.0 0.05 0.22 0.22 96 1008.7
20260507023533 69 165 0.0 1.0 0.04 0.21 0.21 96 1008.7
20260507023033 69 315 0.0 1.0 0.04 0.21 0.21 96 1008.7
20260507022526 70 315 0.0 0.0 0.03 0.20 0.20 96 1008.6
20260507022025 70 315 0.0 0.0 0.02 0.19 0.19 96 1008.6
20260507021525 70 315 0.0 2.0 0.01 0.18 0.18 96 1008.6
20260507021022 71 304 0.0 2.0 0.00 0.17 0.18 96 1008.1
20260507020523 72 315 0.0 1.0 0.00 0.17 0.17 97 1008.1
20260507020022 72 134 0.0 1.0 0.00 0.17 0.17 97 1008.1
20260507015601 72 134 0.0 1.0 0.00 0.17 0.17 97 1008.1
20260507015031 72 134 0.0 1.0 0.00 0.17 0.17 97 1008.1
20260507014518 72 134 0.0 1.0 0.00 0.17 0.17 97 1008.1
20260507014019 72 134 0.0 1.0 0.00 0.17 0.17 97 1007.6
20260507013554 72 134 0.0 0.0 0.00 0.17 0.17 97 1007.6
20260507013017 72 134 0.0 0.0 0.00 0.17 0.17 97 1007.6
20260507012553 72 134 0.0 0.0 0.00 0.17 0.17 97 1007.7
20260507012020 72 134 0.0 2.0 0.00 0.17 0.17 97 1007.7
20260507011525 72 134 0.0 2.0 0.00 0.17 0.17 97 1007.7
20260507011032 72 134 0.0 1.0 0.00 0.17 0.17 97 1007.0
20260507010534 72 134 0.0 1.0 0.00 0.17 0.17 97 1007.0
20260507010023 72 134 0.0 0.0 0.00 0.17 0.17 97 1007.0
20260507005518 72 134 0.0 0.0 0.00 0.17 0.17 97 1007.9
20260507005051 73 134 0.0 0.0 0.00 0.17 0.17 97 1007.9
20260507004523 73 134 0.0 0.0 0.00 0.17 0.17 97 1007.9
20260507004031 73 134 0.0 0.0 0.00 0.17 0.17 97 1008.1
20260507003532 73 134 0.0 0.0 0.00 0.17 0.17 97 1008.1
20260507002548 73 134 0.0 0.0 0.00 0.17 0.17 96 1007.4
20260507002032 73 134 0.0 0.0 0.00 0.17 0.17 96 1007.4
20260507001534 73 134 0.0 0.0 0.00 0.17 0.17 96 1007.4
20260507001019 73 134 0.0 0.0 0.00 0.17 0.17 96 1007.6
20260507000519 73 134 0.0 0.0 0.00 0.17 0.17 96 1007.6
20260507000022 73 134 0.0 0.0 0.00 0.17 0.17 96 1007.6
20260506235544 73 134 0.0 0.0 0.00 0.17 0.17 96 1007.4
20260506235021 73 134 0.0 0.0 0.00 0.17 0.17 96 1007.4
20260506234518 73 162 0.0 0.0 0.00 0.17 0.17 96 1007.4
20260506234037 73 161 0.0 0.0 0.00 0.17 0.17 96 1007.8
20260506233530 73 161 0.0 0.0 0.00 0.17 0.17 96 1007.8
20260506233039 73 161 0.0 0.0 0.00 0.17 0.17 96 1007.8
20260506232545 73 161 0.0 0.0 0.00 0.17 0.17 96 1008.2
20260506232017 73 161 0.0 0.0 0.00 0.17 0.17 96 1008.2
20260506231516 73 161 0.0 0.0 0.00 0.17 0.17 96 1008.2
20260506231038 73 161 0.0 5.0 0.00 0.17 0.17 96 1008.6
20260506230535 73 161 0.0 5.0 0.00 0.17 0.17 96 1008.6
20260506230023 73 148 0.0 3.0 0.00 0.17 0.17 96 1008.6
20260506225530 73 162 0.0 4.0 0.00 0.17 0.17 96 1008.2
20260506225046 74 161 1.0 5.0 0.00 0.17 0.17 96 1008.2
20260506224530 74 141 0.0 1.0 0.00 0.17 0.17 96 1008.2
20260506224039 73 151 0.0 5.0 0.00 0.17 0.17 96 1008.1
20260506223540 73 151 1.0 5.0 0.01 0.17 0.17 96 1008.1
20260506223025 73 168 0.0 2.0 0.01 0.17 0.17 96 1008.1
20260506222534 73 171 0.0 2.0 0.01 0.17 0.17 96 1008.1
20260506222018 73 163 0.0 2.0 0.01 0.17 0.17 96 1008.1
20260506221529 73 154 0.0 2.0 0.01 0.17 0.17 96 1008.1
20260506221026 73 171 0.0 4.0 0.02 0.17 0.17 95 1008.3
20260506220559 73 170 1.0 4.0 0.02 0.17 0.17 95 1008.3
20260506220040 73 169 0.0 4.0 0.02 0.17 0.17 95 1008.3
20260506215533 73 169 0.0 4.0 0.03 0.17 0.17 95 1008.2
20260506215039 73 195 1.0 4.0 0.05 0.17 0.17 95 1008.2
20260506214546 73 169 1.0 5.0 0.14 0.17 0.17 95 1008.2
20260506214035 73 177 1.0 5.0 0.17 0.17 0.17 94 1008.3
20260506213534 73 206 1.0 4.0 0.16 0.16 0.16 94 1008.3
20260506213033 73 160 1.0 4.0 0.16 0.16 0.16 94 1008.3
20260506212534 73 165 0.0 3.0 0.16 0.16 0.16 94 1008.6
20260506212028 74 137 1.0 3.0 0.16 0.16 0.16 94 1008.6
20260506211558 74 229 1.0 3.0 0.16 0.16 0.16 93 1008.6
20260506211022 74 180 1.0 3.0 0.15 0.15 0.15 93 1008.9
20260506210521 74 164 0.0 1.0 0.15 0.15 0.15 92 1008.9
20260506210023 74 164 0.0 2.0 0.15 0.15 0.15 91 1008.9
20260506205555 75 164 0.0 3.0 0.14 0.14 0.14 90 1009.0
20260506205034 75 164 1.0 3.0 0.12 0.12 0.12 89 1009.0
20260506204520 75 159 1.0 3.0 0.01 0.01 0.01 88 1009.0
20260506204023 76 167 1.0 5.0 0.00 0.00 0.00 88 1008.6
20260506203554 76 167 1.0 5.0 0.00 0.00 0.00 87 1008.6
20260506203045 76 162 1.0 4.0 0.00 0.00 0.00 86 1008.6
20260506202524 76 136 1.0 5.0 0.00 0.00 0.00 86 1008.8
20260506202029 76 144 2.0 5.0 0.00 0.00 0.00 85 1008.8
20260506201520 76 157 2.0 4.0 0.00 0.00 0.00 85 1008.8
20260506201051 77 157 1.0 4.0 0.00 0.00 0.00 85 1009.0
20260506200533 77 158 1.0 4.0 0.00 0.00 0.00 85 1009.0
20260506200017 77 153 2.0 8.0 0.00 0.00 0.00 84 1009.0
20260506195532 77 157 2.0 8.0 0.00 0.00 0.00 84 1009.4
20260506195034 77 151 1.0 7.0 0.00 0.00 0.00 85 1009.4
20260506194533 77 159 1.0 7.0 0.00 0.00 0.00 85 1009.4
20260506194029 77 144 1.0 4.0 0.00 0.00 0.00 84 1009.8
20260506193534 77 178 1.0 3.0 0.00 0.00 0.00 84 1009.8
20260506193038 77 161 1.0 4.0 0.00 0.00 0.00 84 1009.8
20260506192514 77 163 2.0 5.0 0.00 0.00 0.00 84 1010.0
20260506192033 77 155 2.0 5.0 0.00 0.00 0.00 83 1010.0
20260506191530 77 151 1.0 4.0 0.00 0.00 0.00 84 1010.0
20260506191034 77 165 2.0 5.0 0.00 0.00 0.00 84 1010.2
20260506190548 77 164 2.0 5.0 0.00 0.00 0.00 83 1010.2
20260506190039 77 150 1.0 2.0 0.00 0.00 0.00 83 1010.2
20260506185544 77 150 1.0 4.0 0.00 0.00 0.00 83 1010.2
20260506185046 77 156 2.0 7.0 0.00 0.00 0.00 83 1010.2
20260506184537 77 149 1.0 7.0 0.00 0.00 0.00 83 1010.2
20260506184035 77 166 1.0 6.0 0.00 0.00 0.00 83 1010.2
20260506183515 77 110 2.0 7.0 0.00 0.00 0.00 82 1010.2
20260506183037 77 69 3.0 7.0 0.00 0.00 0.00 82 1010.2
20260506182546 78 152 2.0 7.0 0.00 0.00 0.00 82 1010.3
20260506182042 78 171 2.0 6.0 0.00 0.00 0.00 82 1010.3
20260506181545 77 167 2.0 6.0 0.00 0.00 0.00 83 1010.3
20260506181024 77 165 1.0 5.0 0.00 0.00 0.00 82 1010.3
20260506180526 77 165 2.0 5.0 0.00 0.00 0.00 82 1010.3
20260506180026 77 106 2.0 8.0 0.00 0.00 0.00 82 1010.3
20260506175543 77 179 2.0 8.0 0.00 0.00 0.00 82 1010.3
20260506175032 77 131 2.0 3.0 0.00 0.00 0.00 82 1010.3
20260506174536 77 154 0.0 3.0 0.00 0.00 0.00 82 1010.3
20260506174029 77 154 1.0 3.0 0.00 0.00 0.00 82 1010.4
20260506173542 77 175 1.0 8.0 0.00 0.00 0.00 81 1010.4
20260506173041 77 163 3.0 8.0 0.00 0.00 0.00 81 1010.4
20260506172529 77 165 3.0 10.0 0.00 0.00 0.00 81 1010.7
20260506172018 77 180 5.0 10.0 0.00 0.00 0.00 80 1010.7
20260506171556 77 141 2.0 8.0 0.00 0.00 0.00 81 1010.7
20260506171030 77 156 3.0 7.0 0.00 0.00 0.00 80 1010.4
20260506170518 77 147 3.0 10.0 0.00 0.00 0.00 80 1010.4
20260506170020 78 140 2.0 7.0 0.00 0.00 0.00 80 1010.4
20260506165553 77 138 3.0 8.0 0.00 0.00 0.00 79 1010.7
20260506165019 78 169 3.0 8.0 0.00 0.00 0.00 79 1010.7
20260506164525 78 172 3.0 7.0 0.00 0.00 0.00 79 1010.7
20260506164034 78 149 1.0 5.0 0.00 0.00 0.00 79 1010.7
20260506163537 78 123 1.0 6.0 0.00 0.00 0.00 79 1010.7
20260506163023 79 160 2.0 9.0 0.00 0.00 0.00 77 1010.7
20260506162524 79 148 1.0 7.0 0.00 0.00 0.00 78 1010.5
20260506162025 78 172 3.0 7.0 0.00 0.00 0.00 78 1010.5
20260506161519 78 183 2.0 5.0 0.00 0.00 0.00 79 1010.5
20260506161019 78 157 2.0 6.0 0.00 0.00 0.00 80 1010.4
20260506160524 77 117 2.0 6.0 0.00 0.00 0.00 80 1010.4
20260506160035 77 143 3.0 5.0 0.00 0.00 0.00 80 1010.4
20260506155534 77 170 1.0 9.0 0.00 0.00 0.00 81 1010.6
20260506155034 77 161 1.0 4.0 0.00 0.00 0.00 82 1010.6
20260506154518 76 111 1.0 6.0 0.00 0.00 0.00 82 1010.6
20260506154018 76 154 2.0 7.0 0.00 0.00 0.00 82 1010.5
20260506153532 76 143 2.0 7.0 0.00 0.00 0.00 83 1010.5
20260506153028 75 157 1.0 5.0 0.00 0.00 0.00 84 1010.5
20260506152519 75 141 1.0 5.0 0.00 0.00 0.00 84 1010.8
20260506152017 75 163 2.0 3.0 0.00 0.00 0.00 84 1010.8
20260506151553 74 141 1.0 4.0 0.00 0.00 0.00 85 1010.8
20260506151015 74 142 1.0 4.0 0.00 0.00 0.00 84 1010.8
20260506150530 74 146 1.0 8.0 0.00 0.00 0.00 85 1010.8
20260506150032 74 24 1.0 8.0 0.00 0.00 0.00 85 1010.8
20260506145516 73 5 1.0 8.0 0.00 0.00 0.00 85 1010.8
20260506145033 73 139 1.0 3.0 0.00 0.00 0.00 86 1010.8
20260506144534 73 128 0.0 5.0 0.00 0.00 0.00 86 1010.8
20260506144016 73 142 1.0 5.0 0.00 0.00 0.00 86 1010.8
20260506143530 73 155 2.0 5.0 0.00 0.00 0.00 86 1010.8
20260506143017 72 212 1.0 7.0 0.00 0.00 0.00 87 1010.8
20260506142550 72 135 2.0 7.0 0.00 0.00 0.00 87 1010.8
20260506142028 72 160 1.0 4.0 0.00 0.00 0.00 88 1010.8
20260506141517 72 175 1.0 4.0 0.00 0.00 0.00 88 1010.8
20260506141030 71 185 2.0 4.0 0.00 0.00 0.00 88 1010.8
20260506140538 71 150 1.0 6.0 0.00 0.00 0.00 88 1010.8
20260506140030 71 170 2.0 3.0 0.00 0.00 0.00 89 1010.8
20260506135533 71 169 2.0 4.0 0.00 0.00 0.00 89 1011.1
20260506135023 70 72 2.0 4.0 0.00 0.00 0.00 89 1011.1
20260506134529 70 138 1.0 3.0 0.00 0.00 0.00 90 1011.1
20260506134107 70 129 2.0 5.0 0.00 0.00 0.00 90 1011.2
20260506133545 70 165 1.0 6.0 0.00 0.00 0.00 90 1011.2
20260506133102 70 85 2.0 6.0 0.00 0.00 0.00 90 1011.2
20260506132534 69 147 1.0 4.0 0.00 0.00 0.00 90 1011.3
20260506132016 69 128 1.0 6.0 0.00 0.00 0.00 90 1011.3
20260506131530 69 192 1.0 6.0 0.00 0.00 0.00 90 1011.3
20260506130537 69 184 1.0 6.0 0.00 0.00 0.00 90 1011.3
20260506130020 69 219 2.0 6.0 0.00 0.00 0.00 90 1011.3
20260506125527 69 160 2.0 5.0 0.00 0.00 0.00 90 1011.3
20260506125059 69 151 0.0 6.0 0.00 0.00 0.00 90 1011.3
20260506124548 69 151 1.0 6.0 0.00 0.00 0.00 90 1011.3
20260506124040 68 155 0.0 3.0 0.00 0.00 0.00 90 1011.1
20260506123543 68 155 1.0 5.0 0.00 0.00 0.00 90 1011.1
20260506123041 68 150 2.0 5.0 0.00 0.00 0.00 90 1011.1
20260506122540 68 151 3.0 5.0 0.00 0.00 0.00 90 1010.8
20260506122014 68 355 1.0 5.0 0.00 0.00 0.00 90 1010.8
20260506121532 68 346 2.0 5.0 0.00 0.00 0.00 90 1010.8
20260506121043 68 154 0.0 2.0 0.00 0.00 0.00 89 1010.3
20260506120528 68 154 0.0 4.0 0.00 0.00 0.00 89 1010.3
20260506115549 68 160 1.0 4.0 0.00 0.00 0.00 89 1010.2
20260506115039 68 167 2.0 4.0 0.00 0.00 0.00 89 1010.2
20260506114542 68 172 2.0 3.0 0.00 0.00 0.00 89 1010.2
20260506114032 68 218 1.0 4.0 0.00 0.00 0.00 89 1009.8
20260506113518 68 157 1.0 4.0 0.00 0.00 0.00 89 1009.8
20260506113020 68 150 0.0 4.0 0.00 0.00 0.00 89 1009.8
20260506112536 68 150 1.0 4.0 0.00 0.00 0.00 88 1009.8
20260506112019 67 180 1.0 7.0 0.00 0.00 0.00 88 1009.8
20260506111522 67 226 2.0 7.0 0.00 0.00 0.00 88 1009.8
20260506111054 67 184 2.0 6.0 0.00 0.00 0.00 88 1009.7
20260506110524 68 177 3.0 6.0 0.00 0.00 0.00 88 1009.7
20260506110032 67 158 1.0 3.0 0.00 0.00 0.00 88 1009.7
20260506105535 67 161 0.0 2.0 0.00 0.00 0.00 88 1009.4
20260506105021 67 140 0.0 4.0 0.00 0.00 0.00 88 1009.4
20260506104527 67 157 0.0 5.0 0.00 0.00 0.00 87 1009.4
20260506104020 67 173 1.0 5.0 0.00 0.00 0.00 87 1009.2
20260506103533 68 171 3.0 5.0 0.00 0.00 0.00 87 1009.2
20260506103028 68 147 1.0 4.0 0.00 0.00 0.00 87 1009.2
20260506102533 68 242 1.0 5.0 0.00 0.00 0.00 87 1009.2
20260506102046 68 107 1.0 6.0 0.00 0.00 0.00 87 1009.2